Location: Shannon
(40.5500°S, 175.4167°E)
Time: 22:05:59
(UTC+00:00)

FENGYUN 3A - Pass Details

Date: 17 November 2025
Orbit: 821 x 833 km, 98.7° (Epoch: 06 December)

Event Time Altitude Azimuth Distance (km) Brightness Sun altitude
Exits shadow 13:33:27 80° 303° (WNW) 860 3.5 -26.8°
Maximum altitude 13:33:34 81° 284° (WNW) 858 3.5 -26.7°
Drops below altitude 10° 13:39:04 10° 196° (SSW) 2,474 6.7 -26.3°
Sets 13:41:27 0° 194° (SSW) 3,414 7.6 -26.1°
